Location: Bernay
(48.6766°N, 2.9386°E)
Time: 08:42:30
(UTC+00:00)

COSMO-SKYMED 1 - Pass Details

Date: 12 January 2026
Orbit: 577 x 579 km, 97.9° (Epoch: 16 February)

Event Time Altitude Azimuth Distance (km) Brightness Sun altitude
Exits shadow 17:09:28 11° 56° (NE) 1,850 4.4 -8.6°
Maximum altitude 17:11:40 15° 90° (E) 1,585 4.1 -9.0°
Drops below altitude 10° 17:14:06 10° 126° (SE) 1,891 4.8 -9.4°
Sets 17:17:02 0° 150° (SSE) 2,783 5.8 -9.8°
